Location: Unspecified
(0.0000°N, 0.0000°E)
Time: 02:47:55
(UTC+00:00)

Courier 1B Rocket - Pass Details

Date: 15 December 2018
Orbit: 920 x 1202 km, 28.2° (Epoch: 18 March)

Event Time Altitude Azimuth Distance (km) Brightness Sun altitude
Rises 19:33:12 0° 266° (W) 4,089 9.4 -22.4°
Reaches altitude 10° 19:36:58 10° 251° (WSW) 3,109 8.7 -23.2°
Maximum altitude 19:42:23 20° 206° (SSW) 2,380 7.6 -24.4°
Drops below altitude 10° 19:47:40 10° 160° (SSE) 3,008 7.6 -25.6°
Sets 19:51:15 0° 144° (SE) 3,917 8.1 -26.4°
